sat.trackr.live / text

‹ back to catalog

STARLINK-31596

NORAD 59336 · 2024-057S

PAYLOAD ACTIVE UNKNOWN

§ Identity

Operator
Country
US
Launch date
2024-03-25
Launch site
AFETR
Launch vehicle
Mass (kg)
RCS (m²)

Purposes: comms

External: N2YO · Heavens-Above · Gunter

§ Orbital elements

Epoch: 2026-05-25T04:47:51.221760Z

Period
94.27 min
Inclination
43.0004°
Eccentricity
0.0001055
Mean motion
15.27578777 rev/d
Perigee alt
482.3 km
Apogee alt
483.8 km
Semi-major
6,861.2 km
B*
3.8665e-5
RAAN
114.6951°
Arg perigee
267.2495°
Mean anomaly
92.8236°
Rev number
12,154

§ Raw data

STARLINK-315961 59336U 24057S   26145.19989840  .00000802  00000+0  38665-4 0  99912 59336  43.0004 114.6951 0001055 267.2495  92.8236 15.27578777121541

JSON: /api/v1/satellites/59336 · /tle

For live sub-satellite position, see the globe view (requires WebGL).

§ Visibility from observer

Set your observer location to see the next 7 days of passes ≥ 10°. The values pass through the URL so the page stays shareable.

No JS? Fill the form by hand. The geolocation button needs JavaScript.